Location: Colle Santa Colomba
(42.0333°N, 12.5667°E)
Time: 03:44:58
(UTC+00:00)

Cosmos 1844 Rocket - Pass Details

Date: 25 October 2021
Orbit: 826 x 843 km, 71.0° (Epoch: 28 November)

Event Time Altitude Azimuth Distance (km) Brightness Sun altitude
Rises 18:48:42 0° 327° (NNW) 3,372 6.4 -29.5°
Reaches altitude 10° 18:51:19 10° 318° (NW) 2,434 5.7 -30.0°
Maximum altitude 18:56:17 34° 255° (WSW) 1,327 4.1 -30.9°
Enters shadow 18:59:25 20° 204° (SSW) 1,845 4.5 -31.4°
